Location: Caltech
(34.1382°N, 118.1253°W)
Time: 01:46:48
(UTC-07:00)

OPAL - Visible Passes

Search period start: 25 April 2015 00:00
Search period end: 05 May 2015 00:00
Orbit: 744 x 796 km, 100.2° (Epoch: 24 April)

Date Brightness Start Highest point End Pass type
(mag) Time Alt. Az. Time Alt. Az. Time Alt. Az.
25 Apr 7.6 20:22:45 10° NNE 20:27:52 60° ESE 20:33:01 10° S visible
25 Apr 10.4 22:03:21 10° NNW 22:06:20 15° WNW 22:09:05 10° W visible
26 Apr 9.3 21:26:39 10° N 21:31:16 33° WNW 21:35:51 10° SW visible
27 Apr 7.8 20:50:53 10° N 20:56:06 75° WNW 21:01:17 10° SSW visible
28 Apr 7.8 20:15:44 10° NNE 20:20:44 47° E 20:25:46 10° S visible
28 Apr 10.2 21:55:42 10° NNW 21:59:18 19° WNW 22:02:44 10° WSW visible
29 Apr 8.9 21:19:20 10° N 21:24:13 40° WNW 21:29:02 10° SW visible
30 Apr 7.5 20:43:45 10° NNE 20:48:59 88° ESE 20:54:13 10° SSW visible
30 Apr 10.8 22:26:48 10° WNW 22:27:15 10° WNW 22:27:20 10° WNW visible
01 May 8.1 20:08:46 10° NNE 20:13:35 38° E 20:18:26 10° SSE visible
01 May 9.9 21:48:11 10° NNW 21:52:16 23° WNW 21:56:12 10° WSW visible
02 May 8.5 21:12:05 10° N 21:17:08 50° WNW 21:22:09 10° SW visible
03 May 7.5 20:36:39 10° NNE 20:41:52 72° ESE 20:47:05 10° S visible
03 May 10.5 22:17:52 10° NW 22:20:14 13° WNW 22:22:18 10° W visible
04 May 8.3 20:01:52 10° NE 20:06:24 30° E 20:11:00 10° SSE visible
04 May 9.6 21:40:47 10° N 21:45:12 28° WNW 21:49:32 10° SW visible
